Flag for U.S.A. Weather past 2 weeks in San Luis Obispo, California, U.S.A.

42 °F

Rain. Fog.

Feels Like: 40 °F
Forecast: 43 / 59 °F
Wind: 3 mph from North

Location: San Luis Obispo County-Mc Chesney Field

Current Time: Nov 25, 2015 at 5:17:49 AM

Latest Report: Nov 25, 2015 at 4:56 AM

Visibility: 4 mi

Pressure: 29.92 "Hg

Humidity: 85%

Dew point: 38 °F

Location of San Luis ObispoLocation

Historic Weather in San Luis Obispo — Graph


San Luis Obispo temperature yesterday

Maximum temperature yesterday: 63 °F (at 11:56 AM)
Minimum temperature yesterday: 45 °F (at 11:56 PM)
Average temperature yesterday: 56 °F

Past Weeks' High & Low Weather Summary

High88 °F (Nov 21, 1:56 PM)90% (Nov 10, 3:56 AM)30.34 "Hg (Nov 10, 3:56 AM)
Low42 °F (Nov 10, 5:56 AM)15% (Nov 21, 12:56 PM)29.87 "Hg (Nov 14, 4:56 PM)
Average60 °F52%30.03 "Hg
* Reported Nov 10 3:56 AM — Nov 25 3:56 AM, San Luis Obispo, Weather by CustomWeather, © 2015

Note: Actual official high and low records may vary slightly from our data, if they occured in-between our weather recording intervals... More about our weather records


San Luis Obispo weather history for previous 24 hours

Time TempWeatherWind HumidityBarometerVisibility
3:56 AM
Wed, Nov 25
42 °FPassing clouds.3 mph85%29.92 "Hg10 mi
2:56 AM42 °FClear.5 mph82%29.93 "Hg10 mi
1:56 AM42 °FPassing clouds.3 mph85%29.94 "Hg10 mi
12:56 AM42 °FClear.No wind85%29.95 "Hg10 mi
11:56 PM
Tue, Nov 24
45 °FClear.No wind82%29.96 "Hg10 mi
10:56 PM47 °FClear.No wind80%29.96 "Hg10 mi
9:56 PM50 °FPassing clouds.No wind74%29.95 "Hg10 mi
8:56 PM53 °FPassing clouds.7 mph69%29.94 "Hg10 mi
7:56 PM54 °FPassing clouds.8 mph67%29.93 "Hg10 mi
6:56 PM56 °FMostly cloudy.7 mph67%29.92 "Hg10 mi
5:56 PM55 °FOvercast.6 mph80%29.91 "Hg4 mi
4:56 PM57 °FLight rain. Fog.12 mph87%29.91 "Hg1 mi
3:56 PM59 °FLight rain. Overcast.7 mph81%29.90 "Hg6 mi
2:56 PM60 °FOvercast.9 mph72%29.91 "Hg10 mi
2:03 PM61 °FLight rain. Overcast.7 mph72%29.92 "Hg4 mi
12:56 PM62 °FOvercast.8 mph60%29.93 "Hg10 mi
11:56 AM63 °FMostly cloudy.9 mph56%29.96 "Hg10 mi
10:56 AM62 °FPartly sunny.No wind56%29.99 "Hg10 mi
9:56 AM60 °FScattered clouds.5 mph60%30.01 "Hg10 mi
8:56 AM57 °FOvercast.No wind67%30.01 "Hg10 mi
7:56 AM56 °FOvercast.3 mph70%29.99 "Hg10 mi
6:56 AM56 °FOvercast.6 mph67%29.97 "Hg10 mi
5:56 AM56 °FOvercast.5 mph67%29.96 "Hg10 mi
Weather by CustomWeather, © 2015

See weather overviewHow to use our weather pages